QPF
0.00 0.00 0.00 0.00 0.00 0.00 0.00 0.00 0.00 0.00 0.00 0.00 0.00 0.00 0.00 0.00 0.00 0.00 0.00 0.00 0.00 0.00 0.01 0.02 0.05 0.10 0.10 0.06 0.04 0.02 0.01 0.01 0.01 0.00 0.00 0.00 0.00 0.00 0.01 0.02 0.02 0.02 0.02 0.01
0.00 0.00 0.00 0.00 0.00 0.00 0.00 0.00 0.00 0.00 0.00 0.00 0.00 0.00 0.00 0.00 0.00 0.00 0.00 0.00 0.00 0.00 0.00 0.04 0.08 0.10 0.08 0.04 0.04 0.03 0.02 0.04 0.03 0.02 0.02 0.01 0.01 0.03 0.05 0.07 0.06 0.05 0.03 0.02
0.00 0.00 0.00 0.00 0.00 0.00 0.00 0.00 0.00 0.00 0.00 0.00 0.00 0.00 0.00 0.00 0.00 0.00 0.00 0.00 0.00 0.00 0.00 0.00 0.01 0.02 0.03 0.04 0.06 0.05 0.06 0.11 0.12 0.08 0.06 0.05 0.05 0.07 0.10 0.11 0.11 0.09 0.07 0.05
0.00 0.00 0.00 0.00 0.00 0.00 0.00 0.00 0.00 0.00 0.00 0.00 0.00 0.00 0.00 0.00 0.00 0.00 0.00 0.00 0.00 0.00 0.00 0.00 0.01 0.03 0.04 0.06 0.07 0.06 0.10 0.19 0.21 0.17 0.14 0.15 0.14 0.15 0.18 0.19 0.18 0.14 0.09 0.05
0.00 0.00 0.00 0.00 0.00 0.00 0.00 0.00 0.00 0.00 0.00 0.00 0.00 0.00 0.00 0.00 0.00 0.00 0.00 0.00 0.00 0.00 0.00 0.01 0.03 0.06 0.06 0.07 0.09 0.10 0.17 0.27 0.29 0.26 0.24 0.25 0.26 0.27 0.27 0.25 0.18 0.11 0.06 0.03
0.00 0.00 0.00 0.00 0.00 0.00 0.00 0.00 0.00 0.00 0.00 0.00 0.00 0.00 0.00 0.00 0.00 0.00 0.00 0.00 0.00 0.00 0.00 0.02 0.07 0.10 0.11 0.11 0.11 0.13 0.17 0.20 0.20 0.20 0.23 0.25 0.29 0.29 0.23 0.17 0.10 0.05 0.03 0.01
0.00 0.00 0.00 0.00 0.00 0.00 0.00 0.00 0.00 0.00 0.00 0.00 0.00 0.00 0.00 0.00 0.00 0.00 0.00 0.00 0.00 0.00 0.01 0.04 0.09 0.13 0.16 0.12 0.11 0.14 0.14 0.12 0.11 0.15 0.20 0.21 0.19 0.15 0.11 0.07 0.04 0.02 0.01 0.00
0.00 0.00 0.00 0.00 0.00 0.00 0.00 0.00 0.00 0.00 0.00 0.00 0.00 0.00 0.00 0.00 0.00 0.00 0.00 0.00 0.00 0.00 0.02 0.06 0.11 0.15 0.16 0.13 0.09 0.08 0.07 0.07 0.08 0.10 0.11 0.09 0.06 0.06 0.04 0.02 0.01 0.01 0.00 0.00
0.00 0.00 0.00 0.00 0.00 0.00 0.00 0.00 0.00 0.00 0.00 0.00 0.00 0.00 0.00 0.00 0.00 0.00 0.00 0.00 0.01 0.02 0.05 0.09 0.14 0.16 0.15 0.12 0.09 0.06 0.05 0.05 0.06 0.05 0.04 0.04 0.04 0.04 0.02 0.01 0.01 0.00 0.00 0.00
0.00 0.00 0.00 0.00 0.00 0.00 0.00 0.00 0.00 0.00 0.00 0.00 0.00 0.00 0.00 0.00 0.00 0.00 0.01 0.02 0.04 0.06 0.09 0.13 0.14 0.14 0.12 0.09 0.07 0.05 0.05 0.05 0.04 0.03 0.04 0.05 0.04 0.03 0.01 0.01 0.00 0.00 0.00 0.00
0.00 0.00 0.00 0.00 0.00 0.00 0.00 0.00 0.00 0.00 0.00 0.00 0.00 0.00 0.00 0.01 0.01 0.01 0.02 0.04 0.06 0.10 0.13 0.14 0.15 0.14 0.13 0.11 0.07 0.05 0.05 0.04 0.03 0.04 0.04 0.04 0.02 0.01 0.01 0.00 0.00 0.00 0.00 0.00
0.00 0.00 0.00 0.00 0.00 0.00 0.00 0.00 0.00 0.00 0.00 0.00 0.00 0.00 0.01 0.01 0.02 0.02 0.04 0.07 0.10 0.14 0.16 0.15 0.13 0.10 0.09 0.06 0.04 0.03 0.02 0.03 0.04 0.04 0.03 0.02 0.02 0.01 0.01 0.00 0.00 0.00 0.00 0.00
0.00 0.00 0.00 0.00 0.00 0.00 0.00 0.00 0.00 0.00 0.00 0.00 0.00 0.01 0.02 0.02 0.02 0.04 0.09 0.20 0.29 0.30 0.24 0.15 0.08 0.04 0.02 0.01 0.01 0.01 0.01 0.02 0.03 0.02 0.01 0.01 0.01 0.01 0.01 0.00 0.00 0.00 0.00 0.00
0.00 0.00 0.00 0.00 0.00 0.00 0.00 0.00 0.00 0.00 0.01 0.01 0.01 0.02 0.02 0.02 0.03 0.07 0.14 0.34 0.42 0.29 0.15 0.06 0.02 0.01 0.00 0.00 0.01 0.01 0.01 0.01 0.01 0.01 0.01 0.01 0.01 0.01 0.01 0.01 0.01 0.01 0.01 0.01
0.00 0.00 0.00 0.00 0.00 0.00 0.00 0.00 0.00 0.01 0.01 0.01 0.01 0.02 0.03 0.03 0.04 0.06 0.10 0.15 0.14 0.08 0.04 0.01 0.00 0.00 0.00 0.00 0.01 0.01 0.00 0.00 0.00 0.00 0.01 0.01 0.01 0.01 0.02 0.01 0.01 0.01 0.01 0.01
0.00 0.00 0.00 0.00 0.00 0.00 0.00 0.00 0.00 0.00 0.01 0.01 0.02 0.06 0.06 0.06 0.08 0.11 0.16 0.17 0.13 0.07 0.03 0.01 0.00 0.00 0.00 0.00 0.00 0.00 0.00 0.00 0.01 0.01 0.02 0.03 0.03 0.03 0.03 0.02 0.01 0.01 0.00 0.00
0.00 0.00 0.00 0.00 0.00 0.00 0.00 0.00 0.00 0.00 0.00 0.01 0.03 0.06 0.07 0.08 0.10 0.11 0.13 0.17 0.15 0.09 0.04 0.02 0.01 0.00 0.00 0.00 0.00 0.00 0.01 0.01 0.02 0.04 0.05 0.06 0.05 0.03 0.01 0.01 0.00 0.00 0.00 0.00
0.00 0.00 0.00 0.00 0.00 0.00 0.00 0.01 0.01 0.01 0.02 0.02 0.02 0.02 0.02 0.03 0.03 0.03 0.05 0.05 0.05 0.03 0.02 0.02 0.01 0.01 0.01 0.01 0.02 0.03 0.04 0.06 0.07 0.07 0.05 0.04 0.02 0.01 0.01 0.00 0.00 0.00 0.00 0.00
0.00 0.00 0.00 0.00 0.00 0.00 0.01 0.01 0.01 0.02 0.03 0.02 0.02 0.01 0.01 0.00 0.00 0.00 0.00 0.00 0.00 0.01 0.01 0.01 0.02 0.02 0.04 0.05 0.06 0.07 0.07 0.06 0.05 0.04 0.02 0.01 0.01 0.01 0.00 0.00 0.00 0.00 0.00 0.00
0.01 0.01 0.01 0.00 0.00 0.01 0.01 0.00 0.00 0.01 0.04 0.01 0.01 0.01 0.01 0.00 0.01 0.00 0.00 0.00 0.00 0.00 0.00 0.01 0.02 0.04 0.05 0.05 0.05 0.04 0.04 0.03 0.02 0.01 0.01 0.00 0.00 0.00 0.00 0.00 0.00 0.00 0.00 0.00
0.04 0.04 0.04 0.03 0.02 0.02 0.01 0.00 0.01 0.02 0.02 0.00 0.00 0.00 0.01 0.01 0.00 0.00 0.00 0.00 0.00 0.00 0.00 0.01 0.01 0.02 0.02 0.01 0.01 0.01 0.01 0.01 0.01 0.01 0.01 0.00 0.00 0.00 0.00 0.00 0.00 0.00 0.00 0.00
0.10 0.10 0.07 0.06 0.06 0.06 0.02 0.01 0.01 0.01 0.00 0.00 0.00 0.00 0.01 0.00 0.00 0.00 0.00 0.00 0.00 0.00 0.00 0.00 0.01 0.01 0.00 0.00 0.00 0.00 0.00 0.00 0.00 0.00 0.00 0.00 0.00 0.00 0.00 0.00 0.00 0.00 0.00 0.00
0.06 0.05 0.05 0.06 0.07 0.05 0.01 0.01 0.00 0.00 0.00 0.01 0.01 0.01 0.01 0.00 0.00 0.00 0.00 0.00 0.00 0.00 0.00 0.00 0.00 0.00 0.00 0.00 0.00 0.01 0.00 0.00 0.00 0.00 0.00 0.00 0.00 0.00 0.00 0.00 0.00 0.00 0.00 0.00
0.02 0.01 0.01 0.02 0.03 0.02 0.01 0.00 0.00 0.00 0.00 0.01 0.01 0.01 0.01 0.00 0.00 0.00 0.00 0.00 0.00 0.00 0.00 0.00 0.00 0.00 0.01 0.00 0.01 0.00 0.00 0.00 0.00 0.00 0.00 0.00 0.00 0.00 0.00 0.00 0.00 0.00 0.00 0.00
0.01 0.00 0.00 0.01 0.01 0.01 0.01 0.01 0.00 0.00 0.01 0.01 0.02 0.02 0.01 0.00 0.00 0.00 0.00 0.00 0.00 0.00 0.00 0.01 0.01 0.01 0.01 0.00 0.00 0.00 0.00 0.00 0.00 0.00 0.01 0.00 0.00 0.00 0.00 0.00 0.00 0.00 0.00 0.00
0.00 0.00 0.00 0.01 0.01 0.01 0.01 0.01 0.00 0.01 0.02 0.03 0.03 0.03 0.01 0.01 0.00 0.00 0.00 0.00 0.00 0.01 0.01 0.01 0.01 0.00 0.00 0.00 0.00 0.00 0.00 0.00 0.00 0.00 0.00 0.00 0.00 0.00 0.00 0.00 0.00 0.00 0.00 0.00
MSLP
1011.33 1012.18 1012.79 1013.13 1013.23 1013.16 1012.99 1012.77 1012.56 1012.35 1012.13 1011.85 1011.45 1010.92 1010.25 1009.48 1008.67 1007.90 1007.27 1006.84 1006.64 1006.67 1006.91 1007.28 1007.71 1008.16 1008.59 1008.97 1009.35 1009.73 1010.18 1010.72 1011.36 1012.08 1012.85 1013.62 1014.33 1014.95 1015.45 1015.84 1016.14 1016.39 1016.63 1016.91
1011.55 1012.24 1012.69 1012.90 1012.94 1012.89 1012.81 1012.75 1012.72 1012.69 1012.59 1012.35 1011.92 1011.26 1010.40 1009.39 1008.35 1007.41 1006.65 1006.17 1006.00 1006.12 1006.48 1006.98 1007.53 1008.05 1008.51 1008.89 1009.23 1009.59 1010.01 1010.55 1011.22 1012.00 1012.87 1013.74 1014.56 1015.27 1015.84 1016.27 1016.59 1016.84 1017.08 1017.35
1011.53 1012.05 1012.33 1012.44 1012.45 1012.44 1012.50 1012.63 1012.81 1012.97 1013.00 1012.82 1012.35 1011.57 1010.52 1009.30 1008.05 1006.92 1006.04 1005.52 1005.38 1005.59 1006.08 1006.72 1007.40 1008.02 1008.54 1008.94 1009.28 1009.60 1010.00 1010.54 1011.22 1012.05 1012.98 1013.93 1014.83 1015.61 1016.24 1016.71 1017.06 1017.32 1017.56 1017.82
1011.22 1011.57 1011.72 1011.74 1011.75 1011.84 1012.05 1012.40 1012.81 1013.18 1013.38 1013.27 1012.79 1011.92 1010.72 1009.30 1007.86 1006.57 1005.59 1005.03 1004.91 1005.20 1005.80 1006.58 1007.38 1008.11 1008.70 1009.14 1009.48 1009.80 1010.19 1010.70 1011.38 1012.22 1013.17 1014.16 1015.11 1015.94 1016.61 1017.12 1017.49 1017.76 1018.01 1018.26
1010.67 1010.85 1010.88 1010.86 1010.90 1011.10 1011.51 1012.09 1012.75 1013.34 1013.71 1013.72 1013.27 1012.35 1011.05 1009.50 1007.91 1006.50 1005.43 1004.83 1004.72 1005.07 1005.76 1006.64 1007.55 1008.37 1009.03 1009.52 1009.88 1010.19 1010.55 1011.04 1011.69 1012.51 1013.44 1014.43 1015.38 1016.23 1016.92 1017.45 1017.84 1018.13 1018.38 1018.64
1009.97 1010.00 1009.93 1009.87 1009.97 1010.30 1010.90 1011.71 1012.62 1013.44 1014.00 1014.14 1013.77 1012.87 1011.54 1009.93 1008.27 1006.78 1005.66 1005.02 1004.92 1005.29 1006.04 1006.98 1007.97 1008.86 1009.57 1010.09 1010.47 1010.78 1011.11 1011.55 1012.15 1012.91 1013.79 1014.73 1015.65 1016.47 1017.16 1017.70 1018.11 1018.42 1018.68 1018.94
1009.25 1009.14 1008.98 1008.91 1009.06 1009.52 1010.29 1011.31 1012.43 1013.47 1014.21 1014.51 1014.26 1013.45 1012.16 1010.58 1008.92 1007.43 1006.30 1005.66 1005.55 1005.93 1006.68 1007.65 1008.66 1009.58 1010.32 1010.87 1011.25 1011.54 1011.83 1012.22 1012.74 1013.42 1014.21 1015.07 1015.92 1016.70 1017.36 1017.89 1018.30 1018.62 1018.91 1019.19
1008.65 1008.40 1008.17 1008.09 1008.28 1008.83 1009.73 1010.90 1012.19 1013.39 1014.30 1014.76 1014.66 1013.99 1012.83 1011.36 1009.80 1008.38 1007.30 1006.68 1006.58 1006.95 1007.68 1008.63 1009.62 1010.53 1011.27 1011.81 1012.18 1012.45 1012.70 1013.02 1013.46 1014.03 1014.71 1015.47 1016.22 1016.92 1017.54 1018.04 1018.45 1018.79 1019.10 1019.40
1008.27 1007.91 1007.62 1007.52 1007.73 1008.32 1009.27 1010.52 1011.89 1013.20 1014.23 1014.83 1014.89 1014.40 1013.44 1012.16 1010.78 1009.51 1008.53 1007.98 1007.89 1008.24 1008.94 1009.83 1010.77 1011.64 1012.34 1012.86 1013.21 1013.45 1013.66 1013.92 1014.27 1014.74 1015.30 1015.93 1016.58 1017.19 1017.74 1018.21 1018.61 1018.96 1019.28 1019.60
1008.17 1007.74 1007.39 1007.27 1007.47 1008.04 1008.98 1010.21 1011.58 1012.89 1013.98 1014.67 1014.88 1014.59 1013.87 1012.84 1011.70 1010.64 1009.83 1009.39 1009.34 1009.68 1010.33 1011.15 1012.01 1012.80 1013.46 1013.94 1014.27 1014.49 1014.66 1014.87 1015.14 1015.51 1015.96 1016.47 1017.01 1017.53 1018.01 1018.43 1018.82 1019.16 1019.50 1019.84
1008.36 1007.89 1007.53 1007.38 1007.53 1008.03 1008.88 1010.00 1011.27 1012.51 1013.56 1014.30 1014.63 1014.53 1014.05 1013.30 1012.45 1011.65 1011.05 1010.74 1010.77 1011.11 1011.70 1012.44 1013.22 1013.94 1014.53 1014.97 1015.28 1015.49 1015.65 1015.82 1016.04 1016.32 1016.68 1017.08 1017.52 1017.95 1018.35 1018.74 1019.09 1019.43 1019.77 1020.12
1008.79 1008.33 1007.97 1007.80 1007.90 1008.30 1008.99 1009.94 1011.02 1012.10 1013.06 1013.77 1014.17 1014.23 1013.99 1013.52 1012.97 1012.45 1012.08 1011.93 1012.04 1012.40 1012.95 1013.62 1014.31 1014.95 1015.49 1015.90 1016.19 1016.40 1016.56 1016.72 1016.90 1017.14 1017.42 1017.74 1018.08 1018.43 1018.78 1019.12 1019.45 1019.78 1020.11 1020.45
1009.39 1008.99 1008.67 1008.49 1008.53 1008.80 1009.32 1010.04 1010.88 1011.76 1012.56 1013.19 1013.61 1013.79 1013.75 1013.55 1013.28 1013.04 1012.89 1012.91 1013.12 1013.50 1014.02 1014.62 1015.23 1015.80 1016.29 1016.68 1016.98 1017.20 1017.38 1017.54 1017.72 1017.92 1018.15 1018.40 1018.68 1018.97 1019.27 1019.57 1019.87 1020.19 1020.51 1020.84
1010.09 1009.78 1009.52 1009.37 1009.36 1009.51 1009.84 1010.33 1010.92 1011.55 1012.16 1012.69 1013.09 1013.34 1013.47 1013.49 1013.48 1013.47 1013.54 1013.71 1014.01 1014.41 1014.91 1015.45 1015.99 1016.51 1016.96 1017.34 1017.64 1017.89 1018.09 1018.27 1018.45 1018.64 1018.84 1019.05 1019.28 1019.53 1019.79 1020.06 1020.35 1020.65 1020.96 1021.26
1010.83 1010.63 1010.46 1010.35 1010.31 1010.36 1010.53 1010.80 1011.15 1011.55 1011.97 1012.37 1012.73 1013.03 1013.27 1013.47 1013.67 1013.87 1014.11 1014.41 1014.78 1015.20 1015.67 1016.16 1016.64 1017.10 1017.52 1017.88 1018.20 1018.47 1018.70 1018.91 1019.11 1019.29 1019.48 1019.67 1019.87 1020.09 1020.32 1020.57 1020.85 1021.13 1021.43 1021.71
1011.58 1011.49 1011.41 1011.34 1011.29 1011.28 1011.31 1011.40 1011.55 1011.76 1012.01 1012.30 1012.61 1012.94 1013.27 1013.61 1013.96 1014.32 1014.70 1015.09 1015.51 1015.94 1016.38 1016.81 1017.24 1017.65 1018.03 1018.38 1018.70 1018.99 1019.25 1019.48 1019.69 1019.88 1020.06 1020.23 1020.42 1020.62 1020.84 1021.08 1021.35 1021.63 1021.90 1022.16
1012.31 1012.31 1012.30 1012.28 1012.23 1012.17 1012.12 1012.08 1012.09 1012.15 1012.28 1012.48 1012.76 1013.11 1013.51 1013.95 1014.42 1014.89 1015.37 1015.83 1016.27 1016.69 1017.10 1017.48 1017.85 1018.20 1018.54 1018.87 1019.19 1019.48 1019.76 1020.00 1020.22 1020.41 1020.59 1020.76 1020.93 1021.12 1021.34 1021.58 1021.83 1022.10 1022.36 1022.58
1013.02 1013.07 1013.10 1013.10 1013.05 1012.97 1012.86 1012.75 1012.67 1012.64 1012.70 1012.86 1013.13 1013.50 1013.96 1014.48 1015.04 1015.60 1016.14 1016.64 1017.09 1017.50 1017.86 1018.18 1018.49 1018.79 1019.09 1019.39 1019.69 1019.98 1020.25 1020.49 1020.71 1020.90 1021.08 1021.24 1021.41 1021.60 1021.81 1022.05 1022.30 1022.55 1022.78 1022.97
1013.69 1013.73 1013.76 1013.75 1013.70 1013.59 1013.45 1013.30 1013.18 1013.12 1013.16 1013.32 1013.61 1014.03 1014.54 1015.14 1015.77 1016.39 1016.97 1017.50 1017.95 1018.33 1018.65 1018.92 1019.17 1019.42 1019.67 1019.93 1020.20 1020.47 1020.73 1020.96 1021.18 1021.37 1021.54 1021.70 1021.86 1022.05 1022.26 1022.49 1022.73 1022.96 1023.17 1023.32
1014.30 1014.29 1014.28 1014.23 1014.14 1014.01 1013.84 1013.68 1013.55 1013.50 1013.55 1013.74 1014.08 1014.55 1015.14 1015.80 1016.49 1017.16 1017.78 1018.33 1018.78 1019.14 1019.42 1019.65 1019.85 1020.04 1020.25 1020.47 1020.70 1020.94 1021.18 1021.41 1021.61 1021.79 1021.96 1022.12 1022.29 1022.47 1022.68 1022.90 1023.13 1023.34 1023.51 1023.63
1014.84 1014.75 1014.65 1014.53 1014.39 1014.22 1014.03 1013.86 1013.74 1013.71 1013.81 1014.05 1014.44 1014.98 1015.63 1016.35 1017.10 1017.83 1018.48 1019.04 1019.50 1019.85 1020.11 1020.30 1020.46 1020.61 1020.77 1020.95 1021.15 1021.37 1021.58 1021.79 1021.99 1022.17 1022.34 1022.50 1022.67 1022.86 1023.06 1023.27 1023.48 1023.67 1023.81 1023.88
1015.29 1015.10 1014.90 1014.70 1014.49 1014.27 1014.06 1013.88 1013.78 1013.78 1013.91 1014.21 1014.66 1015.26 1015.97 1016.75 1017.55 1018.31 1019.00 1019.59 1020.05 1020.40 1020.65 1020.82 1020.95 1021.07 1021.19 1021.34 1021.51 1021.69 1021.89 1022.09 1022.28 1022.47 1022.64 1022.82 1023.00 1023.19 1023.39 1023.60 1023.79 1023.95 1024.06 1024.09
1015.64 1015.36 1015.08 1014.79 1014.51 1014.25 1014.00 1013.82 1013.72 1013.75 1013.92 1014.25 1014.75 1015.39 1016.15 1016.97 1017.81 1018.60 1019.32 1019.93 1020.41 1020.76 1021.01 1021.17 1021.29 1021.38 1021.48 1021.59 1021.74 1021.90 1022.08 1022.28 1022.47 1022.67 1022.86 1023.05 1023.25 1023.45 1023.65 1023.85 1024.03 1024.17 1024.25 1024.25
1015.92 1015.57 1015.22 1014.88 1014.55 1014.25 1013.99 1013.79 1013.70 1013.74 1013.93 1014.28 1014.79 1015.46 1016.23 1017.07 1017.92 1018.73 1019.47 1020.09 1020.58 1020.94 1021.19 1021.35 1021.46 1021.54 1021.61 1021.71 1021.83 1021.98 1022.15 1022.34 1022.54 1022.75 1022.96 1023.18 1023.39 1023.61 1023.83 1024.02 1024.19 1024.32 1024.38 1024.35
1016.13 1015.76 1015.39 1015.03 1014.69 1014.37 1014.10 1013.91 1013.82 1013.85 1014.04 1014.39 1014.90 1015.55 1016.31 1017.13 1017.97 1018.78 1019.50 1020.12 1020.62 1020.99 1021.24 1021.40 1021.50 1021.56 1021.62 1021.70 1021.80 1021.93 1022.10 1022.29 1022.51 1022.73 1022.96 1023.20 1023.44 1023.67 1023.90 1024.10 1024.26 1024.37 1024.42 1024.39
1016.29 1015.96 1015.62 1015.29 1014.97 1014.68 1014.43 1014.25 1014.16 1014.19 1014.36 1014.69 1015.16 1015.76 1016.47 1017.25 1018.04 1018.81 1019.51 1020.11 1020.60 1020.96 1021.21 1021.36 1021.45 1021.51 1021.55 1021.61 1021.70 1021.82 1021.98 1022.17 1022.39 1022.63 1022.88 1023.13 1023.39 1023.63 1023.87 1024.07 1024.23 1024.34 1024.39 1024.35
Thickness
5732 5716 5712 5722 5729 5730 5732 5729 5726 5745 5767 5762 5758 5766 5786 5803 5805 5800 5799 5799 5798 5798 5800 5799 5797 5793 5787 5782 5777 5774 5767 5760 5755 5747 5740 5731 5723 5719 5714 5711 5708 5704 5700 5694
5713 5708 5726 5732 5734 5732 5726 5719 5723 5741 5763 5760 5755 5760 5776 5792 5800 5801 5800 5798 5797 5791 5789 5790 5788 5784 5780 5776 5771 5766 5760 5754 5750 5744 5739 5730 5720 5711 5705 5699 5695 5691 5687 5682
5703 5718 5731 5727 5723 5721 5720 5718 5723 5730 5749 5753 5752 5746 5759 5780 5796 5802 5803 5804 5801 5796 5791 5787 5783 5779 5774 5769 5764 5758 5753 5748 5742 5735 5728 5719 5709 5700 5692 5686 5681 5677 5673 5668
5708 5723 5724 5720 5719 5720 5713 5736 5737 5736 5729 5720 5738 5712 5740 5761 5775 5786 5792 5794 5793 5794 5791 5787 5782 5776 5771 5764 5757 5750 5744 5739 5732 5726 5717 5708 5698 5688 5680 5674 5669 5665 5661 5656
5706 5720 5717 5715 5727 5730 5727 5743 5739 5739 5730 5719 5723 5711 5720 5749 5759 5772 5785 5790 5789 5789 5786 5781 5777 5772 5765 5757 5750 5744 5736 5728 5722 5714 5706 5697 5688 5680 5671 5665 5659 5653 5648 5643
5713 5728 5726 5729 5741 5742 5743 5740 5734 5719 5706 5694 5713 5710 5707 5736 5753 5767 5780 5788 5789 5785 5778 5771 5765 5760 5753 5747 5740 5734 5725 5718 5712 5704 5696 5689 5681 5672 5664 5657 5649 5643 5637 5632
5699 5714 5728 5736 5727 5735 5734 5710 5686 5686 5674 5683 5710 5706 5709 5746 5761 5767 5772 5778 5783 5779 5769 5759 5752 5746 5740 5733 5726 5720 5712 5704 5699 5693 5686 5680 5674 5667 5659 5650 5642 5634 5627 5621
5679 5689 5720 5733 5729 5723 5723 5710 5683 5671 5669 5681 5704 5701 5720 5746 5758 5764 5765 5767 5767 5760 5753 5745 5738 5732 5725 5717 5711 5705 5698 5690 5685 5681 5675 5669 5663 5655 5648 5641 5634 5625 5617 5610
5684 5693 5731 5742 5748 5738 5721 5710 5714 5692 5684 5677 5683 5706 5724 5736 5739 5741 5742 5744 5741 5737 5732 5726 5719 5713 5705 5699 5693 5689 5683 5676 5671 5667 5662 5655 5649 5643 5636 5629 5622 5613 5605 5599
5701 5696 5720 5739 5745 5740 5735 5727 5698 5683 5667 5661 5678 5691 5691 5709 5715 5719 5721 5721 5719 5716 5712 5706 5699 5692 5685 5680 5674 5670 5666 5661 5657 5653 5647 5640 5634 5629 5622 5615 5608 5600 5593 5586
5699 5688 5704 5719 5715 5714 5722 5718 5705 5684 5678 5663 5658 5669 5695 5699 5706 5707 5705 5704 5701 5697 5693 5687 5682 5675 5669 5663 5658 5653 5649 5646 5642 5638 5633 5627 5621 5615 5609 5602 5594 5587 5580 5574
5683 5677 5680 5702 5721 5730 5721 5712 5700 5680 5674 5671 5661 5658 5688 5693 5696 5697 5692 5688 5683 5679 5674 5670 5667 5662 5656 5650 5643 5640 5637 5634 5630 5625 5620 5613 5607 5601 5595 5587 5580 5574 5567 5559
5675 5663 5659 5672 5685 5699 5698 5698 5695 5682 5669 5661 5652 5652 5675 5680 5682 5682 5679 5673 5668 5663 5659 5655 5652 5648 5644 5638 5633 5629 5625 5621 5617 5612 5606 5599 5593 5586 5579 5572 5565 5558 5550 5542
5671 5653 5650 5649 5658 5674 5678 5686 5687 5676 5655 5653 5655 5652 5656 5662 5665 5664 5662 5658 5654 5649 5644 5640 5636 5633 5631 5625 5620 5616 5611 5607 5602 5596 5589 5582 5576 5569 5562 5555 5547 5540 5532 5525
5655 5644 5652 5658 5669 5675 5676 5678 5680 5674 5666 5655 5655 5651 5650 5653 5654 5653 5650 5645 5641 5636 5632 5627 5620 5616 5614 5610 5605 5600 5595 5590 5585 5579 5571 5564 5558 5552 5545 5537 5529 5521 5514 5508
5638 5636 5641 5644 5660 5666 5665 5668 5671 5667 5664 5656 5649 5642 5644 5645 5646 5642 5639 5636 5629 5623 5618 5614 5608 5603 5598 5594 5588 5583 5578 5572 5567 5561 5553 5547 5540 5534 5526 5518 5510 5503 5496 5490
5620 5622 5619 5621 5639 5648 5633 5641 5650 5647 5648 5649 5638 5634 5632 5629 5627 5624 5625 5624 5619 5611 5604 5598 5592 5587 5581 5576 5571 5565 5560 5554 5548 5541 5535 5528 5522 5515 5509 5502 5494 5486 5479 5474
5613 5610 5604 5608 5618 5608 5609 5630 5634 5629 5627 5632 5627 5621 5617 5613 5607 5605 5607 5607 5602 5596 5587 5580 5574 5568 5563 5557 5552 5547 5541 5535 5529 5522 5517 5511 5506 5499 5491 5484 5477 5471 5465 5459
5609 5604 5596 5591 5595 5599 5609 5616 5620 5610 5604 5613 5612 5606 5601 5601 5599 5591 5586 5585 5581 5574 5568 5562 5556 5551 5545 5540 5534 5529 5523 5517 5512 5507 5502 5497 5491 5483 5475 5468 5462 5456 5450 5445
5596 5593 5586 5583 5583 5580 5590 5607 5614 5604 5587 5602 5602 5597 5592 5591 5584 5576 5569 5565 5560 5555 5550 5545 5540 5535 5530 5524 5519 5514 5508 5503 5498 5493 5488 5482 5476 5469 5461 5454 5448 5442 5437 5432
5573 5573 5571 5569 5570 5577 5587 5599 5603 5584 5577 5592 5591 5587 5582 5575 5570 5562 5554 5548 5544 5540 5535 5531 5527 5521 5516 5511 5506 5500 5495 5490 5486 5481 5475 5468 5462 5455 5447 5440 5435 5430 5424 5419
5559 5557 5559 5560 5558 5562 5583 5587 5579 5574 5580 5580 5576 5571 5566 5560 5553 5546 5540 5534 5530 5526 5522 5518 5514 5509 5504 5499 5494 5488 5483 5480 5475 5469 5462 5455 5449 5443 5436 5429 5423 5417 5411 5405
5554 5555 5554 5556 5555 5566 5574 5574 5574 5574 5572 5570 5565 5559 5554 5548 5541 5534 5528 5522 5517 5514 5510 5507 5503 5498 5493 5489 5483 5478 5475 5471 5465 5458 5450 5442 5436 5430 5424 5417 5410 5404 5398 5393
5552 5558 5555 5553 5555 5559 5562 5564 5566 5567 5567 5565 5559 5550 5544 5537 5530 5523 5516 5510 5505 5502 5499 5496 5492 5488 5484 5479 5475 5470 5467 5463 5456 5447 5438 5431 5424 5417 5412 5406 5400 5394 5389 5384
5545 5547 5545 5545 5548 5550 5552 5553 5555 5556 5556 5553 5548 5541 5534 5527 5519 5512 5506 5500 5496 5493 5489 5486 5483 5479 5475 5472 5467 5463 5458 5453 5445 5437 5429 5421 5414 5408 5402 5397 5392 5387 5383 5379
5536 5535 5534 5533 5536 5535 5537 5541 5545 5544 5543 5540 5534 5526 5520 5516 5509 5503 5498 5492 5488 5484 5482 5479 5475 5472 5467 5463 5458 5454 5449 5444 5435 5427 5419 5411 5405 5399 5394 5389 5384 5382 5378 5375